Airfield :
LOGIN :

Register | Disclaimer

   EN    FR    IT 

 










Legend :    VFR   Marginal VFR   IFR   Intensive IFR   Very Intensive IFR
Visi :
Ceiling :
>= 8 km
>= 3000ft
5 to 8 km
1000 to 3000 ft
1500m to 5 km
500 to 1000 ft
800 to 1500m
200 to 500 ft
< 800m
< 200 ft
Symbols :   Thunderstorms  Fog  Heavy snow  Heavy precipitations  Wind > 20 kt
SIGMETs :     Misc.  Thunderstorms  Icing  Turbulence  Mountain Waves  Volcanic Ashes







- Airport Elevation : 1302 ft
- IATA code : GNB
- Download approach charts


LFLS - Grenoble / St. Geoirs

CURRENT METAR :
  • 151230Z AUTO 36008KT 320V050 9999 FEW043 25/14 Q1020 NOSIG

EXPIRED METARs :
  • 151200Z AUTO 33009KT 300V360 9999 FEW042 25/15 Q1020 NOSIG
  • 151130Z AUTO 35008KT 310V030 9999 FEW040 24/13 Q1020 NOSIG
  • 151100Z AUTO 35008KT CAVOK 24/12 Q1020 NOSIG
  • 151030Z AUTO 33009KT 290V360 CAVOK 24/13 Q1021 NOSIG
  • 151000Z AUTO 33009KT 290V010 9999 FEW039 23/13 Q1020 NOSIG

TAF TAF LFLS
Valid from the 15 at 09:00 until the 16 at 09:00 UTC


150800Z 1509/1609 35012KT CAVOK
BECMG 1518/1520 VRB02KT
ATIS : +33 4 76 65 55 89
No reported NOTAMs for that airfield.



MET'MAP, your aeronautical weather chart ! - Copyright ORBIFLY December 2007 - Disclaimer

ORBIFLY MET'MAP TEAM :

Programming & Development : Alexandra Zaïnal
Concept & Development : Baudouin d'Aumeries
Co-Development & Prog : Marc-Olivier Méhu
Technical & hardware support : Manuel Goepfert

Contact : metmap@orbifly.com




SOURCES & CREDITS :

   NOAA